Weather History for Enid, OK

Change the Weather History Date:

Sunday, April 27, 2014

  Actual Average Record
Temperature  
Mean Temperature 72 °F -  
Max Temperature 82 °F 70 °F 87 °F (2012)
Min Temperature 60 °F 50 °F 35 °F (2006)
Cooling Degree Days 7    
Growing Degree Days 22 (Base 50)    
Moisture  
Dew Point 51 °F    
Average Humidity 55    
Maximum Humidity 83    
Minimum Humidity 16    
Precipitation  
Precipitation 0.00 in - - ()
Sea Level Pressure  
Sea Level Pressure 29.39 in    
Wind  
Wind Speed 23 mph (SSW)    
Max Wind Speed 33 mph    
Max Gust Speed 45 mph    
Visibility 8 miles    
Events      
Averages and records for this station are not official NWS values.
T = Trace of Precipitation, MM = Missing Value Source: NWS Daily Summary

Daily Weather History Graph

Daily Weather History Graph

Search for Another Location

Airport:

Trip Planner

Search our weather history database for the weather conditions in past years. The results will help you decide how hot, cold, wet, or windy it might be!

Date:

Astronomy

Apr. 27, 2014 Rise Set
Actual Time 6:42 AM CDT 8:15 PM CDT
Civil Twilight 6:15 AM CDT 8:43 PM CDT
Nautical Twilight 5:42 AM CDT 9:15 PM CDT
Astronomical Twilight 5:07 AM CDT 9:50 PM CDT
Moon 5:40 AM CDT (4/27) 6:53 PM CDT (4/27)
Length of Visible Light 14h 27m
Length of Day
13h 33m
Waning Crescent, 3% of the Moon is Illuminated
Apr 27
Waning Crescent
Apr 29
New
May 6
First Quarter
May 14
Full
May 21
Last Quarter

Hourly Weather History & Observations

Time (CDT) Temp. Dew Point Humidity Pressure Visibility Wind Dir Wind Speed Gust Speed Precip Events Conditions
12:15 AM 71.6 °F 62.6 °F 73% 29.48 in 10.0 mi South 26.5 mph 33.4 mph N/A   Scattered Clouds
12:35 AM 71.6 °F 62.6 °F 73% 29.48 in 10.0 mi South 24.2 mph 32.2 mph N/A   Scattered Clouds
12:55 AM 71.6 °F 62.6 °F 73% 29.47 in 10.0 mi South 25.3 mph 31.1 mph N/A   Clear
1:15 AM 71.6 °F 62.6 °F 73% 29.45 in 10.0 mi SSE 31.1 mph 38.0 mph N/A   Clear
1:35 AM 71.6 °F 64.4 °F 78% 29.47 in 10.0 mi South 24.2 mph 36.8 mph N/A   Scattered Clouds
1:55 AM 73.4 °F 64.4 °F 73% 29.46 in 10.0 mi South 23.0 mph 29.9 mph N/A   Mostly Cloudy
2:15 AM 73.4 °F 64.4 °F 73% 29.45 in 10.0 mi South 25.3 mph 33.4 mph N/A   Overcast
2:35 AM 73.4 °F 64.4 °F 73% 29.44 in 10.0 mi South 26.5 mph 32.2 mph N/A   Overcast
2:55 AM 73.4 °F 64.4 °F 73% 29.44 in 10.0 mi South 24.2 mph 31.1 mph N/A   Overcast
3:15 AM 73.4 °F 64.4 °F 73% 29.43 in 10.0 mi South 24.2 mph 35.7 mph N/A   Overcast
3:35 AM 71.6 °F 64.4 °F 78% 29.42 in 10.0 mi South 23.0 mph 31.1 mph N/A   Overcast
3:55 AM 71.6 °F 64.4 °F 78% 29.43 in 10.0 mi South 19.6 mph 28.8 mph N/A   Mostly Cloudy
4:15 AM 71.6 °F 64.4 °F 78% 29.42 in 10.0 mi South 20.7 mph 28.8 mph N/A   Mostly Cloudy
4:35 AM 71.6 °F 64.4 °F 78% 29.42 in 10.0 mi South 19.6 mph 24.2 mph N/A   Scattered Clouds
5:15 AM 71.6 °F 64.4 °F 78% 29.42 in 7.0 mi South 21.9 mph 26.5 mph N/A   Scattered Clouds
5:35 AM 71.6 °F 64.4 °F 78% 29.40 in 7.0 mi South 23.0 mph 28.8 mph N/A   Mostly Cloudy
5:55 AM 71.6 °F 64.4 °F 78% 29.40 in 7.0 mi South 20.7 mph 27.6 mph N/A   Mostly Cloudy
6:15 AM 71.6 °F 66.2 °F 83% 29.37 in 10.0 mi SSE 21.9 mph 25.3 mph N/A   Scattered Clouds
7:58 AM 64.4 °F 59.0 °F 83% 29.38 in 7.0 mi SE 11.5 mph - N/A   Overcast
8:59 AM 66.2 °F 60.8 °F 83% 29.40 in 7.0 mi South 11.5 mph 18.4 mph N/A   Mostly Cloudy
9:50 AM 66.2 °F 59.0 °F 78% 29.40 in 10.0 mi SE 17.3 mph - N/A   Mostly Cloudy
10:50 AM 73.4 °F 51.8 °F 47% 29.35 in 10.0 mi SSE 18.4 mph - N/A   Scattered Clouds
11:50 AM 77.0 °F 33.8 °F 21% 29.35 in 10.0 mi South 24.2 mph 35.7 mph N/A   Scattered Clouds
12:50 PM 80.6 °F 30.2 °F 16% 29.33 in 10.0 mi SSW 24.2 mph 38.0 mph N/A   Partly Cloudy
1:50 PM 80.6 °F 32.0 °F 17% 29.31 in 10.0 mi SSW 33.4 mph 41.4 mph N/A   Partly Cloudy
3:50 PM 82.4 °F 33.8 °F 17% 29.28 in 10.0 mi SSW 32.2 mph 44.9 mph N/A   Scattered Clouds
5:50 PM 82.4 °F 32.0 °F 16% 29.26 in 4.0 mi SSW 28.8 mph 39.1 mph N/A   Widespread Dust
6:50 PM 80.6 °F 32.0 °F 17% 29.26 in 3.0 mi SSW 19.6 mph 32.2 mph N/A   Widespread Dust
7:50 PM 77.0 °F 33.8 °F 21% 29.29 in 4.0 mi SSW 19.6 mph 27.6 mph N/A   Haze
8:10 PM 75.2 °F 39.2 °F 27% 29.32 in 5.0 mi NW 17.3 mph 27.6 mph N/A   Haze
8:50 PM 71.6 °F 39.2 °F 31% 29.33 in 5.0 mi NW 18.4 mph 23.0 mph N/A   Haze
9:15 PM 69.8 °F 37.4 °F 31% 29.34 in 7.0 mi WNW 12.7 mph 19.6 mph N/A   Overcast
9:35 PM 69.8 °F 37.4 °F 31% 29.35 in 7.0 mi WNW 13.8 mph 24.2 mph N/A   Overcast
9:55 PM 68.0 °F 39.2 °F 35% 29.38 in 5.0 mi WNW 18.4 mph 25.3 mph N/A   Haze
10:15 PM 66.2 °F 39.2 °F 37% 29.38 in 5.0 mi WNW 16.1 mph 25.3 mph N/A   Haze
10:35 PM 64.4 °F 39.2 °F 40% 29.39 in 5.0 mi WNW 18.4 mph - N/A   Haze
10:55 PM 62.6 °F 39.2 °F 42% 29.40 in 4.0 mi WNW 10.4 mph - N/A   Haze
11:15 PM 62.6 °F 39.2 °F 42% 29.40 in 5.0 mi WNW 17.3 mph 24.2 mph N/A   Haze
11:35 PM 62.6 °F 41.0 °F 45% 29.40 in 5.0 mi West 11.5 mph - N/A   Haze
11:55 PM 60.8 °F 41.0 °F 48% 29.39 in 5.0 mi West 15.0 mph 19.6 mph N/A   Haze